�N����,����,�~����,�C��,���x,�C��,����,���ϕ���,�ő�u�ԕ���,�ő厞����,���˗�,�I�_���x,�n�����x,�ő啗���N��,DTYPE
"22/09/25","00:10",0.0,16.7,91.1,1009.3,322.3,1.5,2.4,338.2,0.00,15.3,22.7,"00:03:28",1
"22/09/25","00:20",0.0,16.7,90.7,1009.3,323.4,1.2,1.9,330.4,0.00,15.2,22.4,"00:10:24",1
"22/09/25","00:30",0.0,16.5,90.6,1009.5,324.9,1.2,1.8,326.1,0.00,15.0,22.5,"00:21:12",1
"22/09/25","00:40",0.0,16.2,90.5,1009.3,322.2,1.2,1.8,339.1,0.00,14.7,22.4,"00:32:08",1
"22/09/25","00:50",0.0,16.2,90.7,1009.5,321.6,1.2,2.0,330.2,0.00,14.7,22.6,"00:42:40",1
"22/09/25","01:00",0.0,16.0,90.7,1009.7,324.6,1.3,1.9,345.4,0.00,14.5,22.2,"00:54:56",1
"22/09/25","01:10",0.0,15.8,91.0,1010.2,314.3,1.2,2.0,311.1,0.00,14.4,22.3,"01:00:02",1
"22/09/25","01:20",0.0,15.5,91.1,1010.0,308.0,1.2,1.9,329.0,0.00,14.1,22.4,"01:10:24",1
"22/09/25","01:30",0.0,15.2,91.4,1010.0,305.4,1.1,1.9,329.8,0.00,13.8,22.2,"01:29:12",1
"22/09/25","01:40",0.0,15.1,91.6,1010.0,310.2,1.1,1.4,332.9,0.00,13.8,22.2,"01:34:08",1
"22/09/25","01:50",0.0,15.1,91.8,1009.7,313.0,1.3,1.8,327.8,0.00,13.8,22.2,"01:47:52",1
"22/09/25","02:00",0.0,15.1,92.2,1009.5,312.7,1.3,1.9,328.0,0.00,13.9,22.1,"01:52:08",1
"22/09/25","02:10",0.0,15.4,92.5,1009.5,332.6,1.5,2.5,333.6,0.00,14.2,22.0,"02:00:32",1
"22/09/25","02:20",0.0,15.4,92.6,1009.3,326.9,1.5,2.4,343.0,0.00,14.2,22.1,"02:19:12",1
"22/09/25","02:30",0.0,15.3,92.7,1009.3,320.1,1.3,2.2,328.4,0.00,14.2,21.9,"02:21:12",1
"22/09/25","02:40",0.0,15.2,92.8,1009.3,322.8,1.3,2.1,331.2,0.00,14.1,21.9,"02:35:44",1
"22/09/25","02:50",0.0,14.8,92.9,1009.7,292.8,0.8,1.3,322.0,0.00,13.7,21.7,"02:48:16",1
"22/09/25","03:00",0.0,14.9,93.2,1009.3,310.4,1.6,2.4,308.1,0.00,13.9,21.9,"02:56:16",1
"22/09/25","03:10",0.0,14.8,93.3,1009.3,300.7,1.1,2.1,299.3,0.00,13.8,21.8,"03:00:08",1
"22/09/25","03:20",0.0,14.7,93.4,1009.3,290.3,1.1,1.8,327.1,0.00,13.7,21.9,"03:18:40",1
"22/09/25","03:30",0.0,14.8,93.6,1009.3,296.0,1.5,2.6,323.5,0.00,13.8,21.7,"03:27:28",1
"22/09/25","03:40",0.0,14.9,93.7,1009.7,302.0,1.3,2.0,310.1,0.00,13.9,21.7,"03:32:40",1
"22/09/25","03:50",0.0,14.9,93.8,1009.5,318.1,1.7,2.4,329.0,0.00,14.0,21.6,"03:46:00",1
"22/09/25","04:00",0.0,14.9,93.9,1009.5,310.7,1.5,2.7,318.1,0.00,14.0,21.4,"03:58:40",1
"22/09/25","04:10",0.0,15.0,93.9,1009.3,307.3,1.6,2.8,315.4,0.00,14.1,21.5,"04:03:06",1
"22/09/25","04:20",0.0,15.0,93.9,1009.7,322.9,1.7,2.4,338.4,0.00,14.1,21.5,"04:18:56",1
"22/09/25","04:30",0.0,15.0,94.0,1010.0,327.3,2.0,3.1,341.4,0.00,14.1,21.5,"04:26:40",1
"22/09/25","04:40",0.0,15.0,94.0,1009.7,324.7,2.0,3.2,326.1,0.00,14.1,21.6,"04:33:52",1
"22/09/25","04:50",0.0,15.0,93.9,1009.7,325.7,2.0,3.6,339.3,0.00,14.1,21.6,"04:41:30",1
"22/09/25","05:00",0.0,15.1,93.9,1010.0,303.8,1.6,2.6,334.1,0.00,14.2,21.4,"04:51:12",1
"22/09/25","05:10",0.0,15.2,93.9,1010.0,291.4,1.2,2.1,314.3,0.00,14.3,21.4,"05:00:24",1
"22/09/25","05:20",0.0,15.2,93.8,1010.2,321.7,1.0,2.6,333.1,0.00,14.2,21.5,"05:14:40",1
"22/09/25","05:30",0.0,15.2,93.8,1010.2,314.8,1.0,2.1,325.1,0.00,14.2,21.1,"05:20:02",1
"22/09/25","05:40",0.0,15.3,93.6,1010.2,320.0,1.5,2.9,324.2,0.00,14.3,21.4,"05:31:28",1
"22/09/25","05:50",0.0,15.2,93.6,1010.2,332.4,1.6,2.4,334.5,0.00,14.2,21.2,"05:45:28",1
"22/09/25","06:00",0.0,15.2,93.5,1010.4,316.9,1.6,2.5,330.6,0.00,14.2,21.3,"05:54:24",1
"22/09/25","06:10",0.0,15.3,93.5,1010.7,316.1,2.1,3.9,333.3,0.00,14.3,21.3,"06:09:36",1
"22/09/25","06:20",0.0,15.6,93.2,1010.2,308.9,2.1,3.2,344.6,0.00,14.5,21.3,"06:12:40",1
"22/09/25","06:30",0.0,15.9,92.8,1010.7,312.1,2.2,4.3,328.3,0.00,14.8,21.2,"06:24:16",1
"22/09/25","06:40",0.0,16.0,92.4,1010.7,321.4,2.2,3.6,321.9,0.00,14.8,21.2,"06:30:08",1
"22/09/25","06:50",0.0,16.0,91.9,1010.9,338.1,1.2,3.1,316.5,0.00,14.7,21.2,"06:40:08",1
"22/09/25","07:00",0.0,15.7,91.8,1010.4,316.5,1.2,1.7,328.4,0.00,14.4,21.3,"06:55:44",1
"22/09/25","07:10",0.0,15.5,91.8,1011.2,302.3,1.1,1.7,332.1,0.00,14.2,21.2,"07:02:48",1
"22/09/25","07:20",0.0,15.6,92.0,1010.7,313.3,1.3,2.1,336.8,0.01,14.3,21.2,"07:12:08",1
"22/09/25","07:30",0.0,16.1,92.0,1010.9,332.1,1.3,2.4,342.4,0.04,14.8,21.0,"07:23:04",1
"22/09/25","07:40",0.0,16.4,91.7,1011.4,327.9,1.2,2.5,341.3,0.04,15.1,21.1,"07:38:32",1
"22/09/25","07:50",0.0,16.7,91.3,1010.9,339.9,0.7,2.2,347.2,0.05,15.3,21.0,"07:41:04",1
"22/09/25","08:00",0.0,17.0,91.1,1011.4,341.5,1.0,1.7,327.3,0.06,15.6,21.1,"07:51:36",1
"22/09/25","08:10",0.0,17.5,90.5,1011.2,328.1,0.8,1.4,337.2,0.09,16.0,21.0,"08:09:44",1
"22/09/25","08:20",0.0,18.3,89.7,1011.4,323.8,1.0,2.0,331.0,0.12,16.6,20.9,"08:12:16",1
"22/09/25","08:30",0.0,18.9,88.6,1011.4,324.8,0.5,1.4,341.6,0.14,17.0,21.0,"08:20:02",1
"22/09/25","08:40",0.0,20.1,86.3,1011.9,334.9,0.5,1.6,346.3,0.22,17.8,21.0,"08:30:40",1
"22/09/25","08:50",0.0,20.8,83.0,1011.6,125.6,0.5,1.1,109.9,0.24,17.8,21.2,"08:41:04",1
"22/09/25","09:00",0.0,21.8,79.1,1011.4,347.2,0.5,1.1,358.9,0.26,18.1,21.1,"08:54:08",1
"22/09/25","09:10",0.0,22.3,75.1,1011.2,140.0,0.5,1.1,100.0,0.29,17.7,21.1,"09:02:08",1
"22/09/25","09:20",0.0,22.7,73.1,1011.2,174.9,0.5,1.2,132.8,0.31,17.7,21.0,"09:11:36",1
"22/09/25","09:30",0.0,23.1,69.6,1011.2,155.2,0.7,1.6,104.1,0.38,17.3,21.0,"09:21:44",1
"22/09/25","09:40",0.0,22.9,67.9,1011.2,175.3,1.2,3.3,227.2,0.35,16.7,21.3,"09:31:52",1
"22/09/25","09:50",0.0,23.7,66.3,1010.7,110.0,0.7,1.8,102.0,0.38,17.1,21.3,"09:49:36",1
"22/09/25","10:00",0.0,24.0,65.2,1010.2,116.3,1.1,2.0,123.8,0.40,17.1,21.2,"09:55:36",1
"22/09/25","10:10",0.0,24.1,64.1,1010.2,112.4,1.1,2.5,127.9,0.42,16.9,21.4,"10:07:44",1
"22/09/25","10:20",0.0,24.3,64.2,1009.7,162.5,1.1,1.9,225.8,0.44,17.1,21.3,"10:11:12",1
"22/09/25","10:30",0.0,24.6,62.5,1010.0,143.3,1.1,2.6,199.7,0.45,17.0,21.4,"10:25:12",1
"22/09/25","10:40",0.0,24.7,61.1,1009.7,217.3,1.2,2.9,219.9,0.47,16.7,21.5,"10:32:48",1
"22/09/25","10:50",0.0,24.8,60.5,1009.0,290.2,1.0,2.7,349.5,0.48,16.7,21.5,"10:49:12",1
"22/09/25","11:00",0.0,25.6,59.3,1009.3,340.9,0.7,2.2,136.9,0.49,17.1,21.6,"10:59:28",1
"22/09/25","11:10",0.0,25.8,57.5,1009.3,119.5,0.7,2.1,105.4,0.50,16.8,21.6,"11:02:56",1
"22/09/25","11:20",0.0,26.5,58.5,1009.7,211.0,0.6,1.8,34.2,0.51,17.7,21.9,"11:12:00",1
"22/09/25","11:30",0.0,26.3,56.3,1009.7,108.6,1.1,2.1,128.6,0.52,17.0,21.7,"11:24:16",1
"22/09/25","11:40",0.0,26.3,58.4,1009.5,150.8,1.2,2.7,133.0,0.53,17.5,22.0,"11:35:36",1
"22/09/25","11:50",0.0,26.7,56.2,1009.5,177.6,0.8,1.7,142.2,0.53,17.3,21.8,"11:44:16",1
"22/09/25","12:00",0.0,27.3,54.2,1009.3,156.8,0.7,1.9,111.5,0.49,17.3,22.1,"11:56:08",1
"22/09/25","12:10",0.0,27.4,56.4,1009.5,213.6,0.8,2.0,236.8,0.48,18.0,22.2,"12:06:24",1
"22/09/25","12:20",0.0,27.8,52.7,1009.5,145.6,0.6,1.9,132.1,0.53,17.3,22.2,"12:11:36",1
"22/09/25","12:30",0.0,28.2,53.1,1009.5,239.9,0.7,1.9,231.1,0.54,17.8,22.2,"12:22:48",1
"22/09/25","12:40",0.0,28.2,53.2,1009.3,191.5,1.0,2.2,31.4,0.54,17.8,22.4,"12:38:40",1
"22/09/25","12:50",0.0,28.2,51.6,1009.0,155.6,1.3,3.3,226.8,0.54,17.3,22.6,"12:48:40",1
"22/09/25","13:00",0.0,28.1,52.1,1008.8,248.0,1.0,2.6,207.3,0.53,17.4,22.6,"12:50:08",1
"22/09/25","13:10",0.0,28.7,52.2,1009.0,213.4,0.8,2.5,233.7,0.51,18.0,22.5,"13:07:12",1
"22/09/25","13:20",0.0,28.9,53.3,1008.8,187.0,1.3,4.0,223.8,0.52,18.5,22.7,"13:15:04",1
"22/09/25","13:30",0.0,28.6,53.7,1008.8,172.4,1.6,3.6,216.5,0.51,18.3,22.8,"13:27:36",1
"22/09/25","13:40",0.0,28.3,52.0,1008.6,222.6,1.5,4.3,212.7,0.50,17.5,22.8,"13:30:24",1
"22/09/25","13:50",0.0,28.6,53.6,1008.1,164.5,1.5,3.7,192.6,0.49,18.3,23.1,"13:48:56",1
"22/09/25","14:00",0.0,28.4,52.0,1008.3,209.2,2.1,3.7,229.9,0.48,17.6,23.0,"13:54:00",1
"22/09/25","14:10",0.0,28.4,53.6,1007.8,213.2,2.0,4.5,214.4,0.47,18.1,23.1,"14:05:36",1
"22/09/25","14:20",0.0,28.8,50.7,1008.1,227.5,1.6,3.4,236.2,0.46,17.6,23.3,"14:19:28",1
"22/09/25","14:30",0.0,28.9,51.5,1007.8,186.8,1.5,3.2,197.5,0.43,17.9,23.2,"14:29:36",1
"22/09/25","14:40",0.0,29.0,53.5,1007.8,182.9,1.5,4.1,209.9,0.42,18.6,23.2,"14:37:04",1
"22/09/25","14:50",0.0,29.1,47.6,1007.8,230.2,1.3,3.2,235.4,0.41,16.9,23.4,"14:43:36",1
"22/09/25","15:00",0.0,29.7,49.4,1008.1,280.6,0.7,2.5,236.4,0.38,18.0,23.7,"14:50:32",1
"22/09/25","15:10",0.0,29.8,50.4,1008.1,198.0,1.1,3.2,239.1,0.37,18.4,23.5,"15:06:40",1
"22/09/25","15:20",0.0,29.5,50.1,1007.8,145.0,1.2,2.6,138.8,0.34,18.1,23.5,"15:13:44",1
"22/09/25","15:30",0.0,29.6,49.5,1007.8,171.5,1.0,2.4,219.5,0.32,18.0,23.8,"15:21:20",1
"22/09/25","15:40",0.0,29.7,47.1,1007.6,244.4,1.1,3.4,223.4,0.30,17.3,23.8,"15:33:12",1
"22/09/25","15:50",0.0,29.6,46.8,1007.6,222.6,1.1,3.2,199.3,0.28,17.1,23.9,"15:41:44",1
"22/09/25","16:00",0.0,29.5,47.6,1007.4,186.1,1.1,2.4,220.8,0.25,17.2,23.7,"15:50:48",1
"22/09/25","16:10",0.0,30.1,48.6,1007.6,205.1,0.5,2.0,195.6,0.22,18.1,24.0,"16:00:48",1
"22/09/25","16:20",0.0,30.8,45.1,1007.8,292.5,0.3,1.4,349.1,0.19,17.6,23.9,"16:10:32",1
"22/09/25","16:30",0.0,29.5,47.9,1007.6,216.9,1.5,3.6,213.6,0.17,17.3,24.1,"16:26:48",1
"22/09/25","16:40",0.0,28.5,52.5,1007.1,215.5,1.2,3.1,225.8,0.09,17.9,24.0,"16:32:16",1
"22/09/25","16:50",0.0,28.7,50.6,1007.1,239.6,0.7,1.8,229.1,0.12,17.5,24.0,"16:47:52",1
"22/09/25","17:00",0.0,28.9,50.5,1007.1,239.8,1.2,2.8,223.0,0.10,17.6,24.1,"16:59:04",1
"22/09/25","17:10",0.0,28.6,55.1,1006.4,220.2,1.0,2.1,237.2,0.07,18.7,24.1,"17:05:36",1
"22/09/25","17:20",0.0,28.1,53.8,1006.7,221.9,1.0,1.9,226.3,0.05,17.9,24.1,"17:11:28",1
"22/09/25","17:30",0.0,27.9,55.0,1006.2,244.8,1.3,2.1,232.9,0.03,18.1,24.0,"17:20:16",1
"22/09/25","17:40",0.0,27.6,57.7,1005.5,283.7,1.0,2.0,341.4,0.02,18.6,24.3,"17:38:40",1
"22/09/25","17:50",0.0,26.6,59.8,1006.4,324.1,1.3,2.8,322.9,0.01,18.2,24.2,"17:49:28",1
"22/09/25","18:00",0.0,25.3,63.3,1006.7,306.9,0.8,1.4,304.3,0.00,17.9,24.3,"17:50:08",1
"22/09/25","18:10",0.0,24.4,66.7,1006.7,299.5,0.8,2.0,331.3,0.00,17.8,24.2,"18:00:56",1
"22/09/25","18:20",0.0,23.7,68.6,1007.1,290.1,0.8,1.8,314.1,0.00,17.6,24.0,"18:19:12",1
"22/09/25","18:30",0.0,23.3,70.2,1007.4,314.2,1.3,2.2,341.5,0.00,17.6,24.1,"18:23:52",1
"22/09/25","18:40",0.0,22.8,72.1,1007.6,316.1,1.5,2.9,340.0,0.00,17.6,24.1,"18:38:40",1
"22/09/25","18:50",0.0,22.7,73.1,1007.6,331.5,2.2,3.3,341.9,0.00,17.7,24.0,"18:49:52",1
"22/09/25","19:00",0.0,22.7,73.4,1007.6,333.2,2.0,3.3,332.9,0.00,17.7,24.0,"18:52:00",1
"22/09/25","19:10",0.0,22.7,73.7,1008.3,332.1,2.0,3.1,318.5,0.00,17.8,24.0,"19:06:08",1
"22/09/25","19:20",0.0,22.4,74.8,1008.3,316.7,1.7,2.8,333.1,0.00,17.8,24.0,"19:15:12",1
"22/09/25","19:30",0.0,22.2,75.8,1008.3,331.6,1.8,3.1,356.1,0.00,17.8,23.7,"19:29:28",1
"22/09/25","19:40",0.0,22.1,76.7,1008.8,336.2,2.1,3.5,337.5,0.00,17.9,23.8,"19:32:40",1
"22/09/25","19:50",0.0,21.7,77.9,1008.8,338.7,1.8,2.8,342.6,0.00,17.7,23.8,"19:41:36",1
"22/09/25","20:00",0.0,21.5,79.1,1008.6,339.2,2.0,3.2,339.8,0.00,17.8,23.5,"19:58:16",1
"22/09/25","20:10",0.0,21.4,80.0,1009.0,330.2,2.1,3.2,337.4,0.00,17.8,23.7,"20:01:12",1
"22/09/25","20:20",0.0,21.2,80.5,1009.5,331.0,2.0,2.9,349.0,0.00,17.8,23.7,"20:10:02",1
"22/09/25","20:30",0.0,21.3,80.9,1009.5,333.3,2.2,3.5,346.8,0.00,17.9,23.7,"20:21:04",1
"22/09/25","20:40",0.0,21.2,81.4,1009.5,339.2,2.2,4.2,335.5,0.00,17.9,23.6,"20:30:16",1
"22/09/25","20:50",0.0,20.9,82.1,1009.7,334.7,2.0,3.5,357.5,0.00,17.8,23.5,"20:41:12",1
"22/09/25","21:00",0.0,20.7,83.0,1010.2,334.8,2.0,3.5,345.7,0.00,17.8,23.5,"20:52:16",1
"22/09/25","21:10",0.0,20.6,83.6,1010.0,338.4,2.0,3.4,339.0,0.00,17.8,23.4,"21:00:24",1
"22/09/25","21:20",0.0,20.3,84.1,1010.2,327.1,2.0,2.8,321.3,0.00,17.6,23.7,"21:11:04",1
"22/09/25","21:30",0.0,20.1,84.5,1010.2,304.2,1.1,2.2,325.0,0.00,17.4,23.3,"21:21:36",1
"22/09/25","21:40",0.0,20.0,85.1,1010.4,306.2,1.3,2.6,336.0,0.00,17.5,23.4,"21:38:40",1
"22/09/25","21:50",0.0,19.9,85.7,1010.4,310.6,1.7,2.8,340.0,0.00,17.5,23.3,"21:43:04",1
"22/09/25","22:00",0.0,19.7,86.1,1010.4,288.6,1.2,2.2,311.0,0.00,17.4,23.4,"21:58:00",1
"22/09/25","22:10",0.0,19.7,86.4,1010.4,302.7,1.6,2.8,332.7,0.00,17.4,23.4,"22:05:12",1
"22/09/25","22:20",0.0,19.6,86.6,1010.4,291.3,1.2,2.5,306.3,0.00,17.3,23.3,"22:11:12",1
"22/09/25","22:30",0.0,19.6,86.8,1010.2,290.6,1.2,2.2,313.7,0.00,17.4,23.2,"22:20:08",1
"22/09/25","22:40",0.0,19.6,86.9,1010.7,288.5,1.0,1.7,310.0,0.00,17.4,23.2,"22:37:12",1
"22/09/25","22:50",0.0,19.6,87.1,1010.4,322.7,1.5,2.8,322.2,0.00,17.4,23.1,"22:47:36",1
"22/09/25","23:00",0.0,19.7,87.1,1010.7,310.7,1.8,3.1,316.7,0.00,17.5,23.1,"22:55:04",1
"22/09/25","23:10",0.0,19.7,87.2,1010.7,293.4,1.1,2.0,302.1,0.00,17.6,23.1,"23:00:02",1
"22/09/25","23:20",0.0,19.6,87.3,1010.2,291.9,1.2,1.8,324.8,0.00,17.5,23.1,"23:10:40",1
"22/09/25","23:30",0.0,19.6,87.3,1010.2,309.5,1.3,2.5,318.0,0.00,17.5,23.0,"23:29:44",1
"22/09/25","23:40",0.0,19.6,87.4,1010.4,322.2,1.3,2.1,334.1,0.00,17.5,23.1,"23:32:16",1
"22/09/25","23:50",0.0,19.4,87.5,1010.7,308.4,1.0,1.4,327.2,0.00,17.3,23.1,"23:40:32",1
"22/09/25","24:00",0.0,19.4,87.8,1010.4,302.8,1.1,1.9,332.3,0.00,17.4,22.9,"23:59:36",1
